Chino, CA

11:04 AM PDT on May 27, 2017 (GMT -0700)
Chino

Weather History for KCNO - December, 2011

Change the Weather History Date:

Friday, December 23, 2011

  Actual Average Record
Temperature  
Mean Temperature 52 °F -  
Max Temperature 69 °F 65 °F 81 °F (2014)
Min Temperature 34 °F 36 °F 26 °F (1998)
Degree Days  
Heating Degree Days 14    
Growing Degree Days 2 (Base 50)    
Moisture  
Dew Point 15 °F    
Average Humidity 28    
Maximum Humidity 55    
Minimum Humidity 8    
Precipitation  
Precipitation 0.00 in - - ()
Sea Level Pressure  
Sea Level Pressure 30.39 in    
Wind  
Wind Speed 6 mph (NNW)    
Max Wind Speed 10 mph    
Max Gust Speed 17 mph    
Visibility 10 miles    
Events      
Averages and records for this station are not official NWS values.
T = Trace of Precipitation, MM = Missing Value Source: NWS Daily Summary

Daily Weather History Graph

Daily Weather History Graph

Search for Another Location

Airport or City:

Trip Planner

Search our weather history database for the weather conditions in past years. The results will help you decide how hot, cold, wet, or windy it might be!

Date:

Astronomy

Dec. 23, 2011 Rise Set
Actual Time 6:52 AM PST 4:46 PM PST
Civil Twilight 6:25 AM PST 5:14 PM PST
Nautical Twilight 5:53 AM PST 5:45 PM PST
Astronomical Twilight 5:23 AM PST 6:16 PM PST
Moon 5:46 AM PST (12/23) 4:00 PM PST (12/23)
Length of Visible Light 10h 49m
Length of Day
9h 53m
Waning Crescent, 1% of the Moon is Illuminated
Dec 23
Waning Crescent
Dec 24
New
Dec 31
First Quarter
Jan 8
Full
Jan 16
Last Quarter

Hourly Weather History & Observations

Time (PST) Temp. Windchill Dew Point Humidity Pressure Visibility Wind Dir Wind Speed Gust Speed Precip Events Conditions
12:53 AM 48.0 °F - 8.1 °F 20% 30.37 in 10.0 mi North 10.4 mph 17.3 mph N/A   Clear
1:53 AM 41.0 °F 36.4 °F 15.1 °F 35% 30.38 in 10.0 mi NNW 6.9 mph - N/A   Clear
2:53 AM 39.9 °F 36.7 °F 10.9 °F 31% 30.39 in 10.0 mi WSW 4.6 mph - N/A   Clear
3:53 AM 39.9 °F 36.7 °F 14.0 °F 35% 30.38 in 10.0 mi Variable 4.6 mph - N/A   Clear
4:53 AM 39.0 °F 34.8 °F 15.1 °F 38% 30.39 in 10.0 mi Variable 5.8 mph - N/A   Clear
5:53 AM 34.0 °F 31.0 °F 16.0 °F 48% 30.43 in 10.0 mi West 3.5 mph - N/A   Clear
6:53 AM 39.0 °F 34.8 °F 12.9 °F 34% 30.44 in 10.0 mi Variable 5.8 mph - N/A   Clear
7:53 AM 42.1 °F 37.7 °F 17.1 °F 37% 30.46 in 10.0 mi Variable 6.9 mph - N/A   Clear
8:53 AM 55.0 °F - 12.0 °F 18% 30.47 in 10.0 mi NNW 4.6 mph - N/A   Clear
10:53 AM 62.1 °F - 9.0 °F 12% 30.45 in 10.0 mi NNE 5.8 mph - N/A   Clear
11:53 AM 66.0 °F - 3.0 °F 8% 30.41 in 10.0 mi Calm Calm - N/A   Clear
12:53 PM 69.1 °F - 6.1 °F 9% 30.36 in 10.0 mi NNE 8.1 mph - N/A   Clear
1:53 PM 69.1 °F - 7.0 °F 9% 30.35 in 10.0 mi Variable 3.5 mph 16.1 mph N/A   Partly Cloudy
2:53 PM 69.1 °F - 12.0 °F 11% 30.34 in 10.0 mi Variable 4.6 mph - N/A   Partly Cloudy
3:53 PM 64.0 °F - 19.9 °F 18% 30.35 in 10.0 mi WNW 9.2 mph - N/A   Scattered Clouds
4:53 PM 55.9 °F - 19.9 °F 25% 30.37 in 10.0 mi WNW 9.2 mph - N/A   Scattered Clouds
5:53 PM 55.0 °F - 17.1 °F 23% 30.38 in 10.0 mi Calm Calm - N/A   Scattered Clouds
6:53 PM 52.0 °F - 23.0 °F 32% 30.39 in 10.0 mi NW 3.5 mph - N/A   Scattered Clouds
7:53 PM 52.0 °F - 19.0 °F 27% 30.39 in 10.0 mi Calm Calm - N/A   Scattered Clouds
8:53 PM 48.0 °F - 21.9 °F 36% 30.39 in 10.0 mi North 3.5 mph - N/A   Clear
9:53 PM 45.0 °F 43.5 °F 25.0 °F 46% 30.40 in 10.0 mi West 3.5 mph - N/A   Clear
10:53 PM 44.1 °F 41.5 °F 24.1 °F 45% 30.39 in 9.0 mi North 4.6 mph - N/A   Clear
11:53 PM 41.0 °F 38.0 °F 26.1 °F 55% 30.38 in 10.0 mi North 4.6 mph - N/A   Clear